Racecast

Olivia Cook

Temperance Bedford (MI) · 12 · SECMI D1MONROE · Compare head to head

Athlete rating 126.1 2018 TF season
Best race 126.1 TF
Races 96
Seasons 6 2013 — 2018

RankedNation #8514·MI #400·MI D1 #246·SEC #33·Team #6 ?

Rating scale ?
Speed rating — all races

Cross Country

XC speed rating

2017 XC 117.4

Temperance Bedford (MI) · Grade 12

Date Meet Event Result Place Rating Difficulty PR/SR Flags
2017-11-04 Michigan International Speedway (MIS) 5000m 21:45.1 241st · 7th on team 113.1 -0.006 ★CR CSR
2017-10-28 Lake Erie Metro Park OFFICIAL 5000m 21:19.7 37th · 7th on team 116.7 +0.007
2017-10-19 Hudson Mills Metropark - OFFICIAL 5000m 21:46.6 31st · 6th on team 113.7 -0.006
2017-10-10 Indian Creek OFFICIAL 5000m 20:46.8 8th · 6th on team 120.0 +0.004 ★CR CSR
2017-10-07 Portage West MS 5000m 21:58.3 178th · 5th on team 113.7 -0.003 ★CR CSR
2017-09-30 Lake Erie Metro Park OFFICIAL 5000m 20:59.7 11th · 6th on team 117.9 +0.007 ★CR CSR
2017-09-23 Ella Sharp Park OFFICIAL 5000m 21:02.4 89th · 6th on team 120.7 -0.001 ★CR CSR
2017-09-12 Hudson Mills Metropark - OFFICIAL 5000m 20:44.8 32nd · 5th on team 118.8 -0.006 ★CR CSR
2017-09-09 Hedges Boyer Park 5000m 20:24.1 41st · 6th on team 121.1 -0.003 ★PR ★CR SR CSR RSR
2017-08-26 Boy Scout Camp Lakota 5000m 21:16 24th · 5th on team 117.8 +0.014 PR ★CR SR CSR RSR

2016 XC 106.6

Temperance Bedford (MI) · Grade 11

Date Meet Event Result Place Rating Difficulty PR/SR Flags
2016-10-29 Lake Erie Metro Park OFFICIAL 5000m 23:47.1 34th · 4th on team 105.2 +0.007 CR CSR
2016-10-20 Hudson Mills Metropark - OFFICIAL 5000m 23:01.6 38th · 5th on team 106.6 -0.006
2016-10-15 Hudson Mills Metropark - OFFICIAL 5000m 22:53.5 19th · 5th on team 108.3 -0.006 CSR
2016-10-08 Portage West MS 5000m 22:50 118th · 5th on team 108.3 -0.003 CR CSR
2016-10-01 Pearson's Metro Park 5000m 23:00.3 63rd · 9th on team 107.6 +0.001 CSR
2016-09-27 Pioneer HS 5000m 24:40.4 33rd · 5th on team 103.2 +0.018 ★CR CSR
2016-09-24 Ella Sharp Park OFFICIAL 5000m 22:39.7 130th · 7th on team 109.2 -0.001 CR SR CSR
2016-09-17 Springfield Oaks County Park OFFICIAL 5000m 25:02 99th · 6th on team 103.6 +0.019 CSR
2016-09-13 Heritage Park (Adrian) OFFICIAL 5000m 25:18.7 77th · 10th on team 101.5 +0.035
2016-09-10 Hedges Boyer Park 5000m 23:06.1 188th · 6th on team 107.5 -0.003 CR CSR
2016-08-27 Boy Scout Camp Lakota 5000m 22:56.3 32nd · 5th on team 109.4 +0.014 CR SR CSR
2016-08-25 Heritage Park (Adrian) OFFICIAL 5000m 23:27.3 28th · 4th on team 109.4 +0.035 ★CR SR CSR RSR

2015 XC 108.8

Temperance Bedford (MI) · Grade 10

Date Meet Event Result Place Rating Difficulty PR/SR Flags
2015-10-22 Hudson Mills Metropark - OFFICIAL 5000m 22:09.5 22nd · 1st on team 110.6 -0.006
2015-10-17 Hudson Mills Metropark - OFFICIAL 5000m 22:03.1 64th · 5th on team 110.9 -0.006 PR CR SR CSR
2015-10-03 Pearson's Metro Park 5000m 22:13.2 7th · 7th on team 111.2 +0.001 PR ★CR SR CSR
2015-09-29 Indian Creek OFFICIAL 5000m 22:26.8 39th · 5th on team 110.3 +0.004 CR CSR
2015-09-19 Springfield Oaks County Park OFFICIAL 5000m 22:26 39th · 4th on team 112.4 +0.019 PR ★CR SR CSR RSR
2015-09-10 Munson Park 5000m 23:50.3 68th · 7th on team 104.5 +0.007 ★CR CSR
2015-08-29 Boy Scout Camp Lakota 5000m 23:23.65 47th · 7th on team 106.3 +0.014 PR CR SR CSR RSR
2015-08-27 Heritage Park (Adrian) OFFICIAL 5000m 24:09.2 37th · 8th on team 103.7 +0.035 CR SR CSR RSR

2014 XC 100.2

Temperance Bedford (MI) · Grade 9

Date Meet Event Result Place Rating Difficulty PR/SR Flags
2014-10-25 Lake Erie Metro Park OFFICIAL 5000m 24:58.6 64th · 7th on team 100.0 +0.007 CR CSR
2014-10-04 Portage West MS 5000m 24:33 153rd · 10th on team 100.1 -0.003 CR CSR
2014-09-23 Huron Meadows Metropark OFFICIAL 5000m 23:47.8 34th · 4th on team 104.5 -0.004 PR ★CR SR CSR RSR
2014-09-09 Hudson Mills Metropark - OFFICIAL 5000m 25:33.7 73rd · 8th on team 96.6 -0.006 CR CSR
2014-09-06 Hedges Boyer Park 5000m 24:28.6 184th · 6th on team 99.9 -0.003 PR CR SR CSR RSR
2014-08-28 Heritage Park (Adrian) OFFICIAL 5000m 27:01.6 46th · 16th on team +0.035 PR CR SR CSR

2013 XC 107.2

Temperance Bedford (MI) · Grade 8

Date Meet Event Result Place Rating Difficulty PR/SR Flags
2013-10-19 Hudson Mills Metropark - OFFICIAL 2253m 13:25.3 44th · 2nd on team 85.3 ★PR ★CR SR CSR
2013-10-09 Heritage Park (Adrian) OFFICIAL 3200m 14:28 33rd · 5th on team 116.3 +0.014 ★PR ★CR R SR CSR RSR
2013-09-28 Pearson's Metro Park 3200m 14:35.2 37th · 4th on team 114.8 -0.005 PR ★CR R SR CSR RSR
2013-09-13 Forest Akers East Golf Course 3200m 14:44 99th · 3rd on team 112.5 +0.012 PR ★CR R SR CSR RSR
2013-09-11 Munson Park 3200m 16:17 24th · 3rd on team +0.000 PR ★CR SR CSR

Track & Field

TF speed rating

2018 TF 121.7

Temperance Bedford (MI) · Grade 12

Date Meet Event Result Place Rating Difficulty PR/SR Flags
2018-05-26 2018 MITCA D1 Team State Championships 800m 2:33.28 13th · 2nd on team 121.9 -0.018
2018-05-18 MHSAA LP Region 03-1 @ Saline 800m 2:32.09 11th · 1st on team 121.7 -0.033
2018-05-11 SEC Red Championship 800m 2:28.37 12th · 1st on team 126.1 -0.024 ★R SR RSR
2018-05-07 SEC Red: Huron @ Bedford 400m 1:03.54 1st · 1st on team -0.026 ★PR SR
2018-05-07 SEC Red: Huron @ Bedford 800m 2:32.6 2nd · 2nd on team 121.7 -0.026
2018-04-21 Whitmore Lake HS Invite 800m 2:29.9 1st · 1st on team 124.2 -0.016 SR RSR
2018-04-12 Springfield Invatational 800m 2:40.79 6th · 1st on team 116.4 -0.020
2018-04-10 SEC Red Division - Pioneer @ Bedford 400m 1:06.14 4th · 1st on team -0.026 SR
2018-04-10 SEC Red Division - Pioneer @ Bedford 200m 29.24 4th · 1st on team -0.026 ★PR SR
2018-04-06 Whitmer Golden W Invitational 800m 2:34.41 1st · 1st on team 119.9 -0.034 SR RSR

2017 TF 120.4

Temperance Bedford (MI) · Grade 11

Date Meet Event Result Place Rating Difficulty PR/SR Flags
2017-05-19 MHSAA LP Regional 03-1 @ Saline 800m 2:33.26 15th · 1st on team 120.1 -0.033
2017-04-28 Nancy Erme Relays 800m 2:27.75 3rd · 1st on team 124.3 -0.034 ★PR SR RSR
2017-04-25 SEC Red: Bedford @ Skyline 800m 2:33.6 3rd · 1st on team 120.8 -0.021 PR SR RSR
2017-04-13 Springfield Invitational 800m 2:36.65 3rd · 1st on team 118.5 -0.020 RSR
2017-04-08 Whitmer Golden W Invitational 800m 2:34.27 3rd · 1st on team 118.3 -0.034 PR SR RSR
2017-03-28 SEC Red: Bedford @ Pioneer 400m 1:06.78 5th · 2nd on team -0.017 SR

2016 TF 114.8

Temperance Bedford (MI) · Grade 10

Date Meet Event Result Place Rating Difficulty PR/SR Flags
2016-05-20 MHSAA LP Regional 03-1 @ Saline 400m 1:05.85 12th · 2nd on team -0.033
2016-05-13 SEC Red Division Finals 1600m 5:49.73 12th · 3rd on team 119.6 -0.021 ★PR SR RSR
2016-05-03 SEC Tri: Huron/Skyline @ Bedford 800m 2:42.01 4th · 2nd on team 113.0 -0.026 SR
2016-04-26 Bedford @ Monroe 1600m 5:53.8 5th · 3rd on team 117.6 -0.022 PR SR RSR
2016-04-26 Bedford @ Monroe 800m 2:42.7 3rd · 2nd on team 113.8 -0.022 SR
2016-04-23 Whitmore Lake HS Invite 400m 1:05.67 4th · 2nd on team -0.016
2016-04-19 Saline @ Bedford hj 4-02.00 -0.026
2016-04-19 Saline @ Bedford 400m 1:07.7 4th · 2nd on team -0.026
2016-04-12 SEC: Bedford @ Pioneer hj 4-02.00 -0.017
2016-04-12 SEC: Bedford @ Pioneer 400m 1:05.67 3rd · 2nd on team -0.017 PR SR
2016-04-12 SEC: Bedford @ Pioneer 800m 2:49.54 8th · 4th on team 109.8 -0.017 SR RSR

2015 TF 105.0

Temperance Bedford (MI) · Grade 9

Date Meet Event Result Place Rating Difficulty PR/SR Flags
2015-05-15 MHSAA LP Regional 03-1 @ Saline 400m 1:09.83 15th · 1st on team -0.033
2015-05-12 SEC: Bedford @ Huron 400m 1:07.94 1st · 1st on team -0.024
2015-05-12 SEC: Bedford @ Huron 200m 30.54 1st · 1st on team -0.024 SR
2015-05-07 SEC: Red Division Finals 400m 1:07.85 14th · 3rd on team -0.022 PR SR
2015-05-01 Nancy Erme Girls Relays - Whitmer 400m 1:11.62 7th · 1st on team -0.034
2015-04-28 SEC: Skyline @ Bedford 200m 31.74 15th · 11th on team -0.026 SR
2015-04-28 SEC: Skyline @ Bedford 400m 1:08.34 6th · 3rd on team -0.026 PR SR
2015-04-25 Whitmore Lake HS Invite 400m 1:08.66 5th · 2nd on team -0.016 PR SR
2015-04-21 SEC: Bedford @ Pioneer 800m 2:59.35 12th · 7th on team 105.0 -0.017 SR RSR
2015-04-21 SEC: Bedford @ Pioneer 400m 1:08.77 6th · 3rd on team -0.017 PR SR

2014 TF 118.0

Temperance Bedford (MI) · Grade 8

Date Meet Event Result Place Rating Difficulty PR/SR Flags
2014-05-21 Bedford vs Chelsea hj 4'4" -0.022
2014-05-21 Bedford vs Chelsea 800m 2:47.1 1st · 1st on team 121.3 -0.022
2014-05-19 Bedford vs Dexter hj 4'6" -0.026
2014-05-19 Bedford vs Dexter 800m 2:42 1st · 1st on team 124.3 -0.026 PR R SR RSR
2014-05-08 Bedford vs Adrian hj 4'6" -0.026
2014-05-08 Bedford vs Adrian 800m 2:46 1st · 1st on team 121.7 -0.026 PR R SR RSR
2014-05-05 Bedford vs Ypsilanti hj 3'8" -0.021
2014-05-05 Bedford vs Ypsilanti 1600m 6:31 2nd · 2nd on team 115.8 -0.021
2014-04-28 Bedford vs Monroe hj 4' 2" -0.026
2014-04-16 Bedford TT 100m 13.24 1st · 1st on team -0.026 ★PR SR
2014-04-16 Bedford TT 800m 2:58 1st · 1st on team 113.4 -0.026 PR SR RSR
2014-04-16 Bedford TT 1600m 6:28 2nd · 2nd on team 116.5 -0.026 PR R SR RSR
2014-04-16 Bedford TT 400m 1:14.14 2nd · 2nd on team -0.026 PR SR
2014-04-16 Bedford TT 200m 30.24 2nd · 2nd on team -0.026 PR SR
2014-04-14 Bedford vs Tecumseh hj 4' -0.026
2014-04-14 Bedford vs Tecumseh 3200m 14:23 2nd · 2nd on team 113.3 -0.026 ★PR SR RSR

2013 TF

Temperance Bedford (MI) · Grade 7

Date Meet Event Result Place Rating Difficulty PR/SR Flags
2013-05-10 Saline MS Hornet Relays hj 4-00.00 -0.033
2013-05-09 Bedford vs Lincoln hj 4' 0" -0.026